Location: Houhaj�rvi
(61.2833°N, 23.0000°E)
Time: 16:15:37
(UTC+00:00)

NOSS 3-1 (C) - Pass Details

Date: 27 February 2020
Orbit: 759 x 1449 km, 63.4° (Epoch: 26 March)

Event Time Altitude Azimuth Distance (km) Brightness Sun altitude
Rises 16:28:58 0° 213° (SSW) 3,375 7.0 -5.9°
Reaches altitude 10° 16:31:19 10° 208° (SSW) 2,511 6.2 -6.2°
Maximum altitude 16:36:54 50° 134° (SE) 1,217 3.8 -6.9°
Drops below altitude 10° 16:43:29 10° 62° (ENE) 2,953 5.5 -7.6°
Enters shadow 16:44:49 - 60° (ENE) 3,432 5.8 -7.8°
